Regional Weather Roundup
Issued by NWS

Home | Current Version | Previous Version | Graphics & Text | Print | Product List | Glossary On
Versions: 1 2 3 4 5 6 7 8 9 10 11 12 13 14 15 16 17 18 19 20 21 22 23 24 25 26 27 28 29 30 31 32 33 34 35 36 37 38 39 40 41 42 43 44 45 46 47 48 49 50
000
ASUS45 KABQ 060610
RWRNM
NEW MEXICO REGIONAL WEATHER ROUNDUP
NATIONAL WEATHER SERVICE ALBUQUERQUE NM
1200 AM MDT MON JUL 06 2015

NOTE: "FAIR" MEANS FEW OR NO CLOUDS BELOW 12,000 FEET AGL WITH NO
       SIGNIFICANT WEATHER OR OBSTRUCTIONS TO VISION.

      THIS PRODUCT IS RELEASED AS TWO VERSIONS.  ONE VERSION NEAR
      THE TOP OF THE HOUR CONTAINING PRELIMINARY DATA FROM ALBUQUERQUE
      AND OTHER STATIONS.  A FINAL VERSION WITH ADDITIONAL DATA IS
      ISSUED ABOUT 10 MINUTES AFTER THE HOUR.

NMZ501-503-504-510>518-060700-
NORTHWEST PLATEAU/NORTHCENTRAL MOUNTAINS

CITY           SKY/WX    TMP DP  RH WIND       PRES   REMARKS
FARMINGTON     CLEAR     71  48  43 NW21G30   30.13S
6HR MIN TEMP:  70; 6HR MAX TEMP:  84;

LOS ALAMOS     CLOUDY    58  58 100 N9        30.27R
SANTA FE       CLOUDY    63  56  78 W8        30.20R
6HR MIN TEMP:  63; 6HR MAX TEMP:  84; 6HR PCP: TRACE;

TAOS           CLOUDY    59  48  67 NE6       30.27S
ANGEL FIRE     FAIR      58  52  80 CALM      30.33F

$$
NMZ402-403-502-505>509-060700-
WESTCENTRAL MOUNTAINS/SOUTHWEST MOUNTAINS

CITY           SKY/WX    TMP DP  RH WIND       PRES   REMARKS
GALLUP         LGT RAIN  61  57  87 SW6       30.27R
6HR MIN TEMP:  61; 6HR MAX TEMP:  83; 6HR PCP:  0.30;

GRANTS         CLOUDY    60  58  93 SE5       30.28S
SILVER CITY      N/A     66  59  77 NW13      30.20R

$$
NMZ407-409-411-412-060700-
SOUTHERN DESERTS

CITY           SKY/WX    TMP DP  RH WIND       PRES   REMARKS
LORDSBURG      CLOUDY    70  59  68 W6        30.13F
DEMING         MOCLDY    73  59  61 W12       30.10S
6HR MIN TEMP:  72; 6HR MAX TEMP:  84; 6HR PCP: TRACE;

LAS CRUCES     PTCLDY    75  59  56 W10       30.09F
HOLLOMAN AFB   PTCLDY    76  62  63 S7        30.02S
ALAMOGORDO     MOCLDY    77  59  53 SE3       30.04F
T OR C         CLOUDY    75  59  57 NW8       30.10R
6HR MIN TEMP:  73; 6HR MAX TEMP:  79; 6HR PCP: TRACE;


$$
NMZ519>523-060700-
CENTRAL VALLEYS/CENTRAL HIGHLANDS

CITY           SKY/WX    TMP DP  RH WIND       PRES   REMARKS
ALBUQUERQUE    CLOUDY    70  58  65 CALM      30.16F
6HR MIN TEMP:  69; 6HR MAX TEMP:  75; 6HR PCP: TRACE;

DOUBLE EAGLE   CLOUDY    64  60  88 SW5       30.18F
MORIARTY ARPT    N/A     66  53  62 W7        30.19S
6HR MIN TEMP:  65; 6HR MAX TEMP:  78;

CLINES CORNERS PTCLDY    62  54  74 W10       30.20F
6HR MIN TEMP:  62; 6HR MAX TEMP:  82;

BELEN          CLOUDY    69  58  69 NW8       30.16F
6HR MIN TEMP:  69; 6HR MAX TEMP:  76;

SOCORRO        CLOUDY    74  56  55 NW9       30.12S
6HR MIN TEMP:  73; 6HR MAX TEMP:  80;


$$
NMZ524>526-539-540-060700-
SOUTHCENTRAL MOUNTAINS

CITY           SKY/WX    TMP DP  RH WIND       PRES   REMARKS
RUIDOSO        MOCLDY    64  55  72 SW5       30.24S

$$
NMZ527>531-060700-
NORTHEAST HIGHLANDS/NORTHEAST PLAINS

CITY           SKY/WX    TMP DP  RH WIND       PRES   REMARKS
LAS VEGAS      PTCLDY    65  52  62 N9        30.17S
6HR MIN TEMP:  62; 6HR MAX TEMP:  78; 6HR PCP: TRACE;

RATON          MOCLDY    66  56  70 CALM      30.09F
6HR MIN TEMP:  66; 6HR MAX TEMP:  84;

CLAYTON        PTCLDY    74  56  53 S13       30.00F
6HR MIN TEMP:  74; 6HR MAX TEMP:  90;


$$
NMZ532>537-060700-
EASTCENTRAL PLAINS

CITY           SKY/WX    TMP DP  RH WIND       PRES   REMARKS
TUCUMCARI      PTCLDY    79  57  46 SW10      29.95F
6HR MIN TEMP:  78; 6HR MAX TEMP:  97;

CANNON AFB     CLEAR     71  60  69 S7        30.01S
6HR MIN TEMP:  71; 6HR MAX TEMP:  87;

CLOVIS AIRPORT PTCLDY    72  57  60 S8          N/A

$$
NMZ028-029-538-060700-
SOUTHEAST PLAINS

CITY           SKY/WX    TMP DP  RH WIND       PRES   REMARKS
ROSWELL        MOCLDY    79  60  52 S9        29.97R
6HR MIN TEMP:  77; 6HR MAX TEMP:  91;

ARTESIA        MOCLDY    82  63  51 SW13      29.98S
CARLSBAD       CLOUDY    83  57  41 VRB7      29.95S
6HR MIN TEMP:  82; 6HR MAX TEMP:  89;

HOBBS          PTCLDY    77  64  65 SE10      30.02S


$$


USA.gov is the U.S. government's official web portal to all federal, state and local government web resources and services.